Weather Roundup
Issued by NWS

Home | Current Version | Previous Version | Graphics & Text | Print | Product List | Glossary Off
Versions: 1 2 3 4 5 6 7 8 9 10 11 12 13 14 15 16 17 18 19 20 21 22 23 24 25 26 27 28 29 30 31 32 33 34 35 36 37 38 39 40 41 42 43 44 45 46 47 48 49 50

000
NZUS93 KARX 270159
HRRWXR

CURRENT HOURLY OBSERVATIONS ACROSS
MUCH OF THE UPPER MISSISSIPPI VALLEY
NATIONAL WEATHER SERVICE LA CROSSE WI
900 PM CDT THU MAY 26 2016


...SOUTHEAST MINNESOTA...


CITY           SKY/WX    TMP DP  RH WIND       PRES   REMARKS
ROCHESTER      CLOUDY    68  60  75 NE3       29.85F
ROCHESTER/MAYO FAIR      74  53  48 CALM      29.85F
WINONA         CLOUDY    70  63  78 CALM      29.85S
AUSTIN         CLOUDY    66  57  72 CALM      29.84F
ALBERT LEA     CLOUDY    70  61  73 CALM      29.84F
DODGE CENTER   MOCLDY    66  57  72 E3        29.85F
PRESTON        CLOUDY    68  60  74 CALM      29.86F
OWATONNA       CLOUDY    70  55  60 N3        29.84F
FARIBAULT      CLOUDY    70  61  73 CALM      29.85F
$$

...ELSEWHERE IN MINNESOTA...


CITY           SKY/WX    TMP DP  RH WIND       PRES   REMARKS
MINNEAPOLIS    CLOUDY    77  50  38 S5        29.83S
INTNL FALLS    CLEAR     65  53  65 SW7       29.76R
DULUTH         PTCLDY    52  49  89 CALM      29.84R
RED WING       CLOUDY    70  61  73 NE3       29.84R
REDWOOD FALLS  CLOUDY    73  52  47 S7        29.79F
MANKATO        CLOUDY    72  55  56 NE7       29.81F
WORTHINGTON    CLOUDY    68  60  75 CALM      29.83F
FAIRMONT       CLOUDY    72  55  56 NE7       29.80F
$$

...SOUTHWEST WISCONSIN...


CITY           SKY/WX    TMP DP  RH WIND       PRES   REMARKS
LA CROSSE      CLOUDY    75  61  61 CALM      29.85R
PRAIRIE DU CHI CLOUDY    72  63  72 E3        29.85F
BOSCOBEL       CLOUDY    71  64  78 NE3       29.85F
LONE ROCK      NOT AVBL
PLATTEVILLE    CLOUDY    76  54  46 NW3       29.88S
FORT MC COY    CLOUDY    69  61  74 CALM      29.87R
MAUSTON-NEW LI MOCLDY    68  64  85 S5        29.86R
VIROQUA        FAIR      72  60  66 S3        29.89R
WIS DELLS      CLOUDY    71  59  65 CALM      29.89R
$$

...ELSEWHERE IN WISCONSIN...


CITY           SKY/WX    TMP DP  RH WIND       PRES   REMARKS
MILWAUKEE      CLOUDY    74  56  53 CALM      29.88R
MADISON        CLOUDY    69  57  65 CALM      29.87R
GREEN BAY      CLEAR     70  61  73 CALM      29.86R
EAU CLAIRE     NOT AVBL
BLACK RVR FLS  FAIR      70  58  65 CALM      29.85R
MEDFORD        CLOUDY    67  60  78 CALM      29.86S
WAUSAU         CLOUDY    70  60  70 CALM      29.84S
WIS RAPIDS     CLOUDY    67  59  75 SW3       29.87R
MARSHFIELD     CLOUDY    70  58  65 SW3       29.86R
RICE LAKE      CLOUDY    72  53  52 CALM      29.85S
$$

...NORTHEAST IOWA...


CITY           SKY/WX    TMP DP  RH WIND       PRES   REMARKS
WATERLOO       CLOUDY    74  62  66 SW14      29.87F
DUBUQUE        CLOUDY    69  60  73 NE6       29.87F
DECORAH        CLOUDY    73  61  64 N3        29.85F
MASON CITY     CLOUDY    70  63  78 SE7       29.86F
CHARLES CITY   CLOUDY    73  64  73 CALM      29.86F
OELWEIN        CLOUDY    73  64  73 SW5       29.87F
$$

...ELSEWHERE IN IOWA...


CITY           SKY/WX    TMP DP  RH WIND       PRES   REMARKS
DES MOINES     LGT RAIN  64  59  83 N9        29.94F
IOWA CITY      CLOUDY    76  65  68 W17G28    29.90R
FORT DODGE     CLOUDY    66  54  63 S5        29.82F
MARSHALLTOWN   CLOUDY    64  59  83 SW28G40   29.89F
CEDAR RAPIDS   LGT RAIN  70  61  73 W20G35    29.89R
$$

...NORTHERN ILLINOIS...


CITY           SKY/WX    TMP DP  RH WIND       PRES   REMARKS
CHICAGO-OHARE  CLOUDY    73  65  75 S5        29.88R
CHICAGO-MIDWAY CLOUDY    81  61  50 CALM      29.88R
MOLINE         CLOUDY    78  63  59 SW7       29.86R
ROCKFORD       CLOUDY    75  64  68 CALM      29.90R
PEORIA         CLOUDY    77  69  76 S7        29.89R
$$

NOTE: "FAIR" INDICATES FEW OR NO CLOUDS BELOW 12,000 FEET WITH NO
SIGNIFICANT WEATHER AND/OR OBSTRUCTIONS TO VISIBILITY. WIND
SPEEDS ARE IN MILES-PER-HOUR.




USA.gov is the U.S. government's official web portal to all federal, state and local government web resources and services.